| time (UTC) | temp F | wind direction | speed knots | gust knots | rain 1hr in | rain 24hr in | rain mn in | humidity % | barometer mb |
| 20260504205718 | 71 | 179 | 9.6 | 23.5 | 0.00 | 0.00 | 0.00 | 22 | 1006.6 |
| 20260504204659 | 71 | 212 | 11.3 | 23.5 | 0.00 | 0.00 | 0.00 | 22 | 1006.7 |
| 20260504203646 | 71 | 222 | 12.2 | 20.0 | 0.00 | 0.00 | 0.00 | 22 | 1006.9 |
| 20260504201502 | 70 | 195 | 12.2 | 23.5 | 0.00 | 0.00 | 0.00 | 20 | 1006.9 |
| 20260504200437 | 70 | 180 | 9.6 | 22.6 | 0.00 | 0.00 | 0.00 | 21 | 1007.0 |
| 20260504195406 | 69 | 188 | 13.0 | 22.6 | 0.00 | 0.00 | 0.00 | 22 | 1007.2 |
| 20260504194416 | 69 | 195 | 12.2 | 20.0 | 0.00 | 0.00 | 0.00 | 21 | 1006.9 |
| 20260504193415 | 70 | 200 | 10.4 | 20.0 | 0.00 | 0.00 | 0.00 | 21 | 1007.1 |
| 20260504192419 | 69 | 171 | 11.3 | 16.5 | 0.00 | 0.00 | 0.00 | 22 | 1006.9 |
| 20260504191443 | 69 | 239 | 12.2 | 22.6 | 0.00 | 0.00 | 0.00 | 22 | 1007.0 |
| 20260504190425 | 69 | 222 | 13.0 | 22.6 | 0.00 | 0.00 | 0.00 | 20 | 1007.2 |
| 20260504185405 | 69 | 229 | 13.0 | 23.5 | 0.00 | 0.00 | 0.00 | 21 | 1007.3 |
| 20260504182050 | 68 | 222 | 11.3 | 20.9 | 0.00 | 0.00 | 0.00 | 22 | 1007.3 |
| 20260504181056 | 68 | 244 | 9.6 | 17.4 | 0.00 | 0.00 | 0.00 | 24 | 1007.2 |
| 20260504180104 | 67 | 176 | 10.4 | 17.4 | 0.00 | 0.00 | 0.00 | 24 | 1007.5 |
| 20260504175118 | 67 | 188 | 9.6 | 16.5 | 0.00 | 0.00 | 0.00 | 27 | 1007.5 |
| 20260504174117 | 67 | 175 | 9.6 | 18.2 | 0.00 | 0.00 | 0.00 | 28 | 1007.5 |
| 20260504173128 | 66 | 161 | 9.6 | 18.2 | 0.00 | 0.00 | 0.00 | 30 | 1007.8 |
| 20260504172135 | 65 | 180 | 9.6 | 17.4 | 0.00 | 0.00 | 0.00 | 32 | 1007.9 |
| 20260504171140 | 65 | 173 | 8.7 | 17.4 | 0.00 | 0.00 | 0.00 | 31 | 1008.2 |
| 20260504140656 | 59 | 203 | 4.3 | 9.6 | 0.00 | 0.00 | 0.00 | 40 | 1008.2 |
| 20260504130527 | 55 | 250 | 3.5 | 11.3 | 0.00 | 0.00 | 0.00 | 43 | 1007.5 |
| 20260504110313 | 54 | 242 | 2.6 | 7.0 | 0.00 | 0.00 | 0.00 | 39 | 1007.7 |
| 20260504050329 | 61 | 43 | 0.0 | 1.7 | 0.00 | 0.00 | 0.00 | 50 | 1008.8 |
| 20260504045318 | 60 | 42 | 0.9 | 1.7 | 0.00 | 0.00 | 0.00 | 51 | 1008.9 |
| 20260504043235 | 60 | 36 | 1.7 | 3.5 | 0.00 | 0.00 | 0.00 | 51 | 1009.0 |
| 20260504042217 | 61 | 42 | 1.7 | 3.5 | 0.00 | 0.00 | 0.00 | 49 | 1009.3 |
| 20260504041152 | 62 | 59 | 0.9 | 1.7 | 0.00 | 0.00 | 0.00 | 49 | 1009.2 |
| 20260504040149 | 62 | 59 | 0.9 | 1.7 | 0.00 | 0.00 | 0.00 | 48 | 1009.1 |
| 20260504035145 | 62 | 100 | 0.0 | 1.7 | 0.00 | 0.00 | 0.00 | 49 | 1009.0 |
| 20260504034143 | 61 | 18 | 0.0 | 2.6 | 0.00 | 0.00 | 0.00 | 49 | 1008.9 |
| 20260504032029 | 62 | 107 | 0.0 | 1.7 | 0.00 | 0.00 | 0.00 | 47 | 1008.8 |
| 20260504031014 | 62 | 108 | 0.0 | 4.3 | 0.00 | 0.00 | 0.00 | 48 | 1008.6 |
| 20260504024840 | 62 | 57 | 2.6 | 4.3 | 0.00 | 0.00 | 0.00 | 50 | 1008.6 |
| 20260504023840 | 62 | 68 | 0.0 | 3.5 | 0.00 | 0.00 | 0.00 | 49 | 1008.6 |
| 20260504022850 | 63 | 75 | 0.9 | 3.5 | 0.00 | 0.00 | 0.00 | 48 | 1008.3 |
| 20260504021855 | 64 | 106 | 0.0 | 0.0 | 0.00 | 0.00 | 0.00 | 46 | 1008.6 |
| 20260504020859 | 64 | 96 | 0.9 | 4.3 | 0.00 | 0.00 | 0.00 | 45 | 1008.7 |
| 20260504015901 | 65 | 78 | 1.7 | 7.8 | 0.00 | 0.00 | 0.00 | 45 | 1008.8 |
| 20260504014859 | 66 | 104 | 1.7 | 7.8 | 0.00 | 0.00 | 0.00 | 43 | 1008.9 |
| 20260504013826 | 66 | 86 | 2.6 | 7.0 | 0.00 | 0.00 | 0.00 | 42 | 1008.9 |
| 20260504012757 | 67 | 130 | 1.7 | 8.7 | 0.00 | 0.00 | 0.00 | 40 | 1008.8 |
| 20260504011803 | 69 | 161 | 4.3 | 8.7 | 0.00 | 0.00 | 0.00 | 37 | 1008.9 |
| 20260504010820 | 69 | 142 | 3.5 | 7.8 | 0.00 | 0.00 | 0.00 | 37 | 1009.0 |
| 20260504004739 | 67 | 126 | 3.5 | 7.8 | 0.00 | 0.00 | 0.00 | 39 | 1009.0 |
| 20260504003744 | 67 | 150 | 2.6 | 7.0 | 0.00 | 0.00 | 0.00 | 39 | 1009.2 |
| 20260504001612 | 67 | 57 | 3.5 | 8.7 | 0.00 | 0.00 | 0.00 | 41 | 1009.4 |
| 20260503235507 | 67 | 67 | 4.3 | 10.4 | 0.00 | 0.00 | 0.00 | 43 | 1009.6 |
| 20260503234443 | 67 | 53 | 4.3 | 10.4 | 0.00 | 0.00 | 0.00 | 43 | 1009.6 |
| 20260503232330 | 68 | 53 | 4.3 | 13.0 | 0.00 | 0.00 | 0.00 | 42 | 1009.8 |
| 20260503231346 | 67 | 105 | 7.8 | 13.0 | 0.00 | 0.00 | 0.00 | 42 | 1009.8 |
| 20260503230351 | 68 | 44 | 5.2 | 10.4 | 0.00 | 0.00 | 0.00 | 41 | 1010.0 |
| 20260503225334 | 70 | 73 | 5.2 | 10.4 | 0.00 | 0.00 | 0.00 | 40 | 1010.2 |
| 20260503224326 | 69 | 88 | 6.1 | 11.3 | 0.00 | 0.00 | 0.00 | 41 | 1010.2 |
| 20260503222140 | 67 | 55 | 7.0 | 13.0 | 0.00 | 0.00 | 0.00 | 44 | 1010.5 |
| 20260503221200 | 67 | 68 | 6.1 | 13.0 | 0.00 | 0.00 | 0.00 | 44 | 1010.5 |
| 20260503220159 | 65 | 57 | 7.0 | 13.0 | 0.00 | 0.00 | 0.00 | 45 | 1010.6 |
| 20260503215203 | 66 | 64 | 6.1 | 11.3 | 0.00 | 0.00 | 0.00 | 44 | 1010.8 |
| 20260503214144 | 66 | 84 | 7.0 | 12.2 | 0.00 | 0.00 | 0.00 | 45 | 1011.1 |
| 20260503213112 | 68 | 54 | 7.0 | 13.9 | 0.00 | 0.00 | 0.00 | 43 | 1011.3 |
| 20260503212055 | 68 | 36 | 4.3 | 10.4 | 0.00 | 0.00 | 0.00 | 44 | 1011.6 |
| 20260503211114 | 67 | 56 | 5.2 | 14.8 | 0.00 | 0.00 | 0.00 | 45 | 1011.7 |